1576882813,2019-12-21 00:00,26.60,972.24,998.03,214,24.85,4.38,-25,1
1576882873,2019-12-21 00:01,26.60,972.26,998.04,214,24.85,4.38,-25,1
1576882933,2019-12-21 00:02,26.60,972.18,997.97,214,24.85,4.38,-25,1
1576882994,2019-12-21 00:03,26.60,972.18,997.96,214,24.85,4.38,-26,1
1576883054,2019-12-21 00:04,26.58,972.17,997.95,214,24.86,4.38,-26,1
1576883114,2019-12-21 00:05,26.57,972.15,997.93,214,24.86,4.37,-25,1
1576883174,2019-12-21 00:06,26.56,972.18,997.96,214,24.85,4.36,-26,1
1576883235,2019-12-21 00:07,26.57,972.15,997.93,214,24.86,4.37,-25,1
1576883295,2019-12-21 00:08,26.55,972.06,997.85,214,24.86,4.37,-25,1
1576883355,2019-12-21 00:09,26.54,972.07,997.85,214,24.86,4.36,-25,1
1576883416,2019-12-21 00:10,26.53,972.09,997.87,214,24.86,4.36,-24,1
1576883476,2019-12-21 00:11,26.87,971.99,997.78,214,24.86,4.54,-26,1
1576883536,2019-12-21 00:12,26.54,971.97,997.75,214,24.85,4.35,-25,1
1576883597,2019-12-21 00:13,26.54,971.95,997.73,214,24.85,4.35,-27,1
1576883657,2019-12-21 00:14,26.54,971.99,997.77,214,24.86,4.36,-25,1
1576883717,2019-12-21 00:15,26.60,971.99,997.77,214,24.86,4.39,-26,1
1576883777,2019-12-21 00:16,26.61,972.02,997.80,214,24.86,4.40,-24,1
1576883838,2019-12-21 00:17,26.54,972.04,997.83,214,24.85,4.35,-22,1
1576883898,2019-12-21 00:18,26.53,971.96,997.75,214,24.85,4.35,-23,1
1576883958,2019-12-21 00:19,26.53,971.95,997.73,214,24.85,4.35,-25,1
1576884018,2019-12-21 00:20,26.50,971.93,997.72,214,24.85,4.33,-25,1
1576884079,2019-12-21 00:21,26.52,971.90,997.68,214,24.86,4.35,-23,1
1576884139,2019-12-21 00:22,26.51,971.90,997.69,214,24.85,4.33,-26,1
1576884199,2019-12-21 00:23,26.52,971.94,997.73,214,24.86,4.35,-25,1
1576884260,2019-12-21 00:24,26.52,971.93,997.72,214,24.85,4.34,-26,1
1576884320,2019-12-21 00:25,26.51,971.94,997.73,214,24.86,4.34,-26,1
1576884380,2019-12-21 00:26,26.52,971.92,997.70,214,24.86,4.35,-25,1
1576884440,2019-12-21 00:27,26.50,971.92,997.71,214,24.86,4.34,-25,1
1576884501,2019-12-21 00:28,26.51,971.96,997.74,214,24.87,4.35,-25,1
1576884561,2019-12-21 00:29,26.51,971.97,997.75,214,24.86,4.34,-25,1
1576884621,2019-12-21 00:30,26.50,971.95,997.74,214,24.86,4.34,-23,1
1576884682,2019-12-21 00:31,26.51,971.97,997.75,214,24.87,4.35,-25,1
1576884742,2019-12-21 00:32,26.49,971.95,997.73,214,24.88,4.35,-25,1
1576884802,2019-12-21 00:33,26.49,971.90,997.69,214,24.87,4.34,-25,1
1576884862,2019-12-21 00:34,26.49,971.91,997.69,214,24.87,4.34,-25,1
1576884923,2019-12-21 00:35,26.49,971.85,997.64,214,24.87,4.34,-25,1
1576884983,2019-12-21 00:36,26.49,971.88,997.67,214,24.88,4.35,-26,1
1576885043,2019-12-21 00:37,26.49,971.87,997.65,214,24.87,4.34,-26,1
1576885103,2019-12-21 00:38,26.49,971.84,997.62,214,24.87,4.34,-25,1
1576885164,2019-12-21 00:39,26.23,971.81,997.59,214,24.87,4.20,-21,1
1576885224,2019-12-21 00:40,26.49,971.81,997.59,214,24.87,4.34,-26,1
1576885284,2019-12-21 00:41,26.48,971.83,997.61,214,24.87,4.33,-26,1
1576885345,2019-12-21 00:42,26.50,971.84,997.62,214,24.88,4.35,-27,1
1576885405,2019-12-21 00:43,26.47,971.80,997.59,214,24.88,4.34,-25,1
1576885465,2019-12-21 00:44,26.49,971.77,997.55,214,24.87,4.34,-26,1
1576885525,2019-12-21 00:45,26.47,971.81,997.59,214,24.88,4.34,-26,1
1576885586,2019-12-21 00:46,26.47,971.75,997.54,214,24.87,4.33,-26,1
1576885646,2019-12-21 00:47,26.47,971.75,997.53,214,24.88,4.34,-26,1
1576885706,2019-12-21 00:48,26.48,971.76,997.55,214,24.88,4.34,-25,1
1576885767,2019-12-21 00:49,26.47,971.74,997.52,214,24.88,4.34,-26,1
1576885827,2019-12-21 00:50,26.48,971.74,997.52,214,24.87,4.33,-25,1
1576885887,2019-12-21 00:51,26.47,971.75,997.53,214,24.88,4.34,-26,1
1576885947,2019-12-21 00:52,26.45,971.73,997.52,214,24.88,4.33,-27,1
1576886008,2019-12-21 00:53,26.46,971.71,997.49,214,24.87,4.32,-26,1
1576886068,2019-12-21 00:54,26.31,971.69,997.48,214,24.89,4.26,-26,1
1576886128,2019-12-21 00:55,26.45,971.69,997.47,214,24.89,4.33,-23,1
1576886188,2019-12-21 00:56,26.46,971.71,997.50,214,24.89,4.34,-26,1
1576886249,2019-12-21 00:57,26.59,971.68,997.46,214,24.88,4.40,-26,1
1576886309,2019-12-21 00:58,26.46,971.66,997.44,214,24.89,4.34,-24,1
1576886369,2019-12-21 00:59,26.46,971.61,997.39,214,24.89,4.34,-24,1
1576886430,2019-12-21 01:00,26.45,971.64,997.43,214,24.89,4.33,-25,1
1576886490,2019-12-21 01:01,26.46,971.61,997.39,214,24.89,4.34,-25,1
1576886550,2019-12-21 01:02,26.44,971.61,997.39,214,24.89,4.33,-25,1
1576886610,2019-12-21 01:03,26.45,971.58,997.36,214,24.90,4.34,-25,1
1576886671,2019-12-21 01:04,26.45,971.63,997.41,214,24.90,4.34,-25,1
1576886731,2019-12-21 01:05,26.44,971.57,997.35,214,24.90,4.34,-25,1
1576886791,2019-12-21 01:06,26.46,971.59,997.37,214,24.90,4.35,-23,1
1576886852,2019-12-21 01:07,26.44,971.62,997.40,214,24.90,4.34,-26,1
1576886912,2019-12-21 01:08,26.39,971.63,997.42,214,24.90,4.31,-27,1
1576886972,2019-12-21 01:09,26.45,971.64,997.43,214,24.90,4.34,-25,1
1576887033,2019-12-21 01:10,26.45,971.61,997.39,214,24.90,4.34,-25,1
1576887093,2019-12-21 01:11,26.44,971.62,997.40,214,24.90,4.34,-25,1
1576887153,2019-12-21 01:12,26.45,971.63,997.41,214,24.90,4.34,-22,1
1576887213,2019-12-21 01:13,26.45,971.62,997.40,214,24.90,4.34,-25,1
1576887274,2019-12-21 01:14,26.43,971.64,997.42,214,24.91,4.34,-26,1
1576887334,2019-12-21 01:15,26.45,971.61,997.39,214,24.91,4.35,-26,1
1576887394,2019-12-21 01:16,26.44,971.66,997.45,214,24.92,4.35,-25,1
1576887454,2019-12-21 01:17,26.38,971.67,997.45,214,24.92,4.33,-25,1
1576887515,2019-12-21 01:18,26.45,971.70,997.48,214,24.91,4.35,-22,1
1576887575,2019-12-21 01:19,26.44,971.68,997.47,214,24.92,4.36,-25,1
1576887635,2019-12-21 01:20,26.43,971.68,997.46,214,24.92,4.35,-25,1
1576887695,2019-12-21 01:21,26.45,971.63,997.41,214,24.92,4.36,-25,1
1576887755,2019-12-21 01:22,26.45,971.63,997.41,214,24.92,4.36,-22,1
1576887815,2019-12-21 01:23,26.46,971.63,997.41,214,24.92,4.37,-24,1
1576887876,2019-12-21 01:24,26.46,971.65,997.44,214,24.92,4.37,-27,1
1576887936,2019-12-21 01:25,26.46,971.66,997.45,214,24.89,4.34,-25,1
1576887996,2019-12-21 01:26,26.46,971.68,997.46,214,24.91,4.36,-24,1
1576888056,2019-12-21 01:27,26.44,971.66,997.44,214,24.92,4.36,-25,1
1576888116,2019-12-21 01:28,26.35,971.63,997.41,214,24.92,4.31,-27,1
1576888176,2019-12-21 01:29,26.43,971.64,997.42,214,24.93,4.36,-25,1
1576888236,2019-12-21 01:30,26.44,971.63,997.41,214,24.88,4.32,-26,1
1576888296,2019-12-21 01:31,26.52,971.60,997.38,214,24.91,4.39,-26,1
1576888356,2019-12-21 01:32,26.45,971.61,997.39,214,24.92,4.36,-26,1
1576888416,2019-12-21 01:33,26.45,971.59,997.38,214,24.93,4.37,-27,1
1576888476,2019-12-21 01:34,26.46,971.58,997.37,214,24.93,4.38,-25,1
1576888537,2019-12-21 01:35,26.45,971.55,997.33,214,24.93,4.37,-25,1
1576888597,2019-12-21 01:36,26.45,971.59,997.37,214,24.92,4.36,-27,1
1576888657,2019-12-21 01:37,26.44,971.61,997.39,214,24.93,4.36,-26,1
1576888717,2019-12-21 01:38,26.45,971.58,997.36,214,24.92,4.36,-25,1
1576888777,2019-12-21 01:39,26.44,971.57,997.35,214,24.93,4.36,-22,1
1576888837,2019-12-21 01:40,26.45,971.58,997.36,214,24.93,4.37,-26,1
1576888897,2019-12-21 01:41,26.44,971.60,997.38,214,24.93,4.36,-25,1
1576888957,2019-12-21 01:42,26.45,971.59,997.37,214,24.93,4.37,-27,1
1576889017,2019-12-21 01:43,26.45,971.62,997.40,214,24.94,4.38,-22,1
1576889078,2019-12-21 01:44,26.46,971.62,997.40,214,24.94,4.38,-26,1
1576889138,2019-12-21 01:45,26.45,971.65,997.43,214,24.94,4.38,-23,1
1576889198,2019-12-21 01:46,26.44,971.63,997.42,214,24.94,4.37,-25,1
1576889258,2019-12-21 01:47,26.44,971.65,997.44,214,24.94,4.37,-25,1
1576889318,2019-12-21 01:48,26.43,971.65,997.44,214,24.93,4.36,-25,1
1576889378,2019-12-21 01:49,26.45,971.63,997.42,214,24.94,4.38,-26,1
1576889438,2019-12-21 01:50,26.45,971.59,997.37,214,24.94,4.38,-25,1
1576889498,2019-12-21 01:51,26.45,971.52,997.30,214,24.94,4.38,-26,1
1576889558,2019-12-21 01:52,26.45,971.52,997.31,214,24.94,4.38,-27,1
1576889618,2019-12-21 01:53,26.45,971.58,997.36,214,24.94,4.38,-25,1
1576889678,2019-12-21 01:54,26.43,971.57,997.36,214,24.93,4.36,-24,1
1576889739,2019-12-21 01:55,26.44,971.64,997.42,214,24.93,4.36,-25,1
1576889799,2019-12-21 01:56,26.46,971.63,997.41,214,24.94,4.38,-24,1
1576889859,2019-12-21 01:57,26.47,971.61,997.39,214,24.93,4.38,-27,1
1576889919,2019-12-21 01:58,26.45,971.58,997.36,214,24.93,4.37,-25,1
1576889979,2019-12-21 01:59,26.45,971.54,997.32,214,24.94,4.38,-26,1
1576890039,2019-12-21 02:00,26.44,971.54,997.32,214,24.94,4.37,-26,1
1576890099,2019-12-21 02:01,26.44,971.52,997.31,214,24.94,4.37,-26,1
1576890159,2019-12-21 02:02,26.45,971.51,997.30,214,24.94,4.38,-26,1
1576890219,2019-12-21 02:03,26.44,971.52,997.31,214,24.94,4.37,-26,1
1576890279,2019-12-21 02:04,26.45,971.55,997.33,214,24.94,4.38,-21,1
1576890340,2019-12-21 02:05,26.45,971.60,997.39,214,24.94,4.38,-23,1
1576890400,2019-12-21 02:06,26.45,971.64,997.42,214,24.93,4.37,-27,1
1576890460,2019-12-21 02:07,26.45,971.64,997.43,214,24.93,4.37,-23,1
1576890520,2019-12-21 02:08,26.45,971.66,997.44,214,24.93,4.37,-26,1
1576890580,2019-12-21 02:09,26.66,971.71,997.49,214,24.93,4.48,-25,1
1576890640,2019-12-21 02:10,26.22,971.67,997.45,214,24.92,4.24,-25,1
1576890701,2019-12-21 02:11,26.47,971.69,997.47,214,24.93,4.38,-25,1
1576890762,2019-12-21 02:12,26.45,971.71,997.49,214,24.92,4.36,-25,1
1576890822,2019-12-21 02:13,26.45,971.68,997.46,214,24.93,4.37,-25,1
1576890882,2019-12-21 02:14,26.47,971.65,997.43,214,24.92,4.37,-25,1
1576890942,2019-12-21 02:15,26.45,971.61,997.39,214,24.92,4.36,-25,1
1576891003,2019-12-21 02:16,26.45,971.61,997.39,214,24.93,4.37,-26,1
1576891063,2019-12-21 02:17,26.47,971.57,997.36,214,24.92,4.37,-26,1
1576891123,2019-12-21 02:18,26.51,971.59,997.38,214,24.92,4.40,-26,1
1576891184,2019-12-21 02:19,26.45,971.59,997.37,214,24.92,4.36,-23,1
1576891244,2019-12-21 02:20,26.46,971.56,997.34,214,24.93,4.38,-24,1
1576891304,2019-12-21 02:21,26.46,971.52,997.30,214,24.92,4.37,-25,1
1576891364,2019-12-21 02:22,26.45,971.50,997.28,214,24.91,4.35,-26,1
1576891425,2019-12-21 02:23,26.47,971.51,997.30,214,24.91,4.36,-25,1
1576891485,2019-12-21 02:24,26.45,971.51,997.29,214,24.92,4.36,-27,1
1576891545,2019-12-21 02:25,26.45,971.51,997.30,214,24.91,4.35,-26,1
1576891605,2019-12-21 02:26,26.47,971.52,997.30,214,24.92,4.37,-23,1
1576891666,2019-12-21 02:27,26.47,971.49,997.27,214,24.91,4.36,-25,1
1576891726,2019-12-21 02:28,26.46,971.45,997.24,214,24.91,4.36,-26,1
1576891786,2019-12-21 02:29,26.46,971.47,997.25,214,24.91,4.36,-26,1
1576891846,2019-12-21 02:30,26.46,971.42,997.20,214,24.90,4.35,-28,1
1576891907,2019-12-21 02:31,26.47,971.46,997.24,214,24.90,4.36,-26,1
1576891967,2019-12-21 02:32,26.46,971.41,997.19,214,24.91,4.36,-25,1
1576892027,2019-12-21 02:33,26.47,971.44,997.23,214,24.91,4.36,-26,1
1576892088,2019-12-21 02:34,26.48,971.43,997.21,214,24.90,4.36,-26,1
1576892148,2019-12-21 02:35,26.48,971.43,997.21,214,24.91,4.37,-26,1
1576892208,2019-12-21 02:36,26.48,971.40,997.18,214,24.90,4.36,-25,1
1576892268,2019-12-21 02:37,26.47,971.34,997.12,214,24.91,4.36,-26,1
1576892329,2019-12-21 02:38,26.49,971.33,997.11,214,24.91,4.38,-26,1
1576892389,2019-12-21 02:39,26.48,971.29,997.07,214,24.90,4.36,-25,1
1576892449,2019-12-21 02:40,26.54,971.26,997.05,214,24.90,4.39,-26,1
1576892509,2019-12-21 02:41,26.48,971.30,997.08,214,24.91,4.37,-26,1
1576892570,2019-12-21 02:42,26.49,971.33,997.12,214,24.91,4.38,-26,1
1576892630,2019-12-21 02:43,26.47,971.33,997.11,214,24.90,4.36,-25,1
1576892690,2019-12-21 02:44,26.48,971.29,997.07,214,24.89,4.35,-25,1
1576892751,2019-12-21 02:45,26.48,971.32,997.10,214,24.90,4.36,-26,1
1576892811,2019-12-21 02:46,26.48,971.25,997.03,214,24.90,4.36,-25,1
1576892871,2019-12-21 02:47,26.49,971.30,997.09,214,24.90,4.37,-26,1
1576892931,2019-12-21 02:48,26.49,971.34,997.12,214,24.90,4.37,-25,1
1576892992,2019-12-21 02:49,26.50,971.34,997.12,214,24.90,4.37,-26,1
1576893052,2019-12-21 02:50,26.48,971.35,997.13,214,24.90,4.36,-26,1
1576893112,2019-12-21 02:51,26.49,971.34,997.12,214,24.90,4.37,-24,1
1576893172,2019-12-21 02:52,26.80,971.36,997.14,214,24.89,4.52,-25,1
1576893233,2019-12-21 02:53,26.50,971.38,997.16,214,24.89,4.36,-26,1
1576893293,2019-12-21 02:54,26.47,971.37,997.16,214,24.89,4.35,-25,1
1576893353,2019-12-21 02:55,26.50,971.34,997.13,214,24.90,4.37,-25,1
1576893414,2019-12-21 02:56,26.50,971.34,997.12,214,24.88,4.36,-26,1
1576893474,2019-12-21 02:57,26.49,971.35,997.14,214,24.89,4.36,-26,1
1576893534,2019-12-21 02:58,26.49,971.37,997.15,214,24.89,4.36,-26,1
1576893594,2019-12-21 02:59,26.50,971.40,997.18,214,24.89,4.36,-25,1
1576893655,2019-12-21 03:00,26.49,971.39,997.17,214,24.88,4.35,-25,1
1576893715,2019-12-21 03:01,26.51,971.39,997.17,214,24.88,4.36,-25,1
1576893775,2019-12-21 03:02,26.48,971.34,997.13,214,24.89,4.35,-25,1
1576893836,2019-12-21 03:03,26.51,971.38,997.16,214,24.88,4.36,-25,1
1576893896,2019-12-21 03:04,26.49,971.41,997.20,214,24.88,4.35,-24,1
1576893956,2019-12-21 03:05,26.51,971.35,997.14,214,24.87,4.35,-25,1
1576894016,2019-12-21 03:06,26.50,971.32,997.11,214,24.87,4.35,-25,1
1576894077,2019-12-21 03:07,26.51,971.31,997.09,214,24.88,4.36,-26,1
1576894137,2019-12-21 03:08,26.50,971.27,997.06,214,24.88,4.35,-25,1
1576894197,2019-12-21 03:09,26.48,971.28,997.07,214,24.87,4.33,-25,1
1576894257,2019-12-21 03:10,26.50,971.30,997.08,214,24.88,4.36,-26,1
1576894318,2019-12-21 03:11,26.51,971.28,997.06,214,24.87,4.35,-25,1
1576894378,2019-12-21 03:12,26.51,971.30,997.08,214,24.88,4.36,-23,1
1576894438,2019-12-21 03:13,26.51,971.29,997.08,214,24.88,4.36,-25,1
1576894499,2019-12-21 03:14,26.50,971.29,997.07,214,24.87,4.35,-26,1
1576894559,2019-12-21 03:15,26.50,971.32,997.10,214,24.88,4.35,-25,1
1576894619,2019-12-21 03:16,26.50,971.29,997.07,214,24.87,4.35,-23,1
1576894679,2019-12-21 03:17,26.49,971.30,997.08,214,24.87,4.34,-25,1
1576894740,2019-12-21 03:19,26.49,971.26,997.05,214,24.87,4.34,-25,1
1576894800,2019-12-21 03:20,26.35,971.21,996.99,214,24.87,4.26,-25,1
1576894860,2019-12-21 03:21,26.49,971.22,997.01,214,24.86,4.33,-26,1
1576894921,2019-12-21 03:22,26.52,971.23,997.01,214,24.87,4.36,-26,1
1576894981,2019-12-21 03:23,26.50,971.25,997.03,214,24.86,4.34,-25,1
1576895041,2019-12-21 03:24,26.51,971.23,997.02,214,24.86,4.34,-25,1
1576895101,2019-12-21 03:25,26.51,971.25,997.03,214,24.86,4.34,-25,1
1576895162,2019-12-21 03:26,26.51,971.25,997.03,214,24.86,4.34,-25,1
1576895222,2019-12-21 03:27,26.50,971.22,997.00,214,24.85,4.33,-24,1
1576895282,2019-12-21 03:28,26.50,971.22,997.00,214,24.86,4.34,-24,1
1576895343,2019-12-21 03:29,26.47,971.22,997.01,214,24.86,4.32,-25,1
1576895403,2019-12-21 03:30,26.52,971.25,997.03,214,24.85,4.34,-26,1
1576895463,2019-12-21 03:31,26.51,971.28,997.06,214,24.86,4.34,-27,1
1576895523,2019-12-21 03:32,26.52,971.29,997.07,214,24.86,4.35,-24,1
1576895584,2019-12-21 03:33,26.52,971.29,997.07,214,24.85,4.34,-25,1
1576895644,2019-12-21 03:34,26.53,971.27,997.05,214,24.85,4.35,-26,1
1576895704,2019-12-21 03:35,26.52,971.27,997.05,214,24.85,4.34,-27,1
1576895764,2019-12-21 03:36,26.51,971.27,997.05,214,24.85,4.33,-26,1
1576895825,2019-12-21 03:37,26.51,971.30,997.08,214,24.85,4.33,-26,1
1576895885,2019-12-21 03:38,26.52,971.31,997.09,214,24.85,4.34,-26,1
1576895945,2019-12-21 03:39,26.40,971.25,997.03,214,24.84,4.27,-25,1
1576896006,2019-12-21 03:40,26.52,971.25,997.04,214,24.84,4.33,-25,1
1576896066,2019-12-21 03:41,26.52,971.22,997.00,214,24.85,4.34,-27,1
1576896126,2019-12-21 03:42,26.53,971.23,997.01,214,24.85,4.35,-24,1
1576896186,2019-12-21 03:43,26.52,971.21,996.99,214,24.84,4.33,-25,1
1576896247,2019-12-21 03:44,26.53,971.20,996.98,214,24.84,4.34,-26,1
1576896307,2019-12-21 03:45,26.53,971.22,997.01,214,24.84,4.34,-25,1
1576896367,2019-12-21 03:46,26.52,971.22,997.01,214,24.83,4.32,-25,1
1576896427,2019-12-21 03:47,26.52,971.22,997.01,214,24.84,4.33,-26,1
1576896488,2019-12-21 03:48,26.52,971.22,997.01,214,24.83,4.32,-26,1
1576896548,2019-12-21 03:49,26.52,971.20,996.98,214,24.83,4.32,-25,1
1576896608,2019-12-21 03:50,26.52,971.14,996.92,214,24.83,4.32,-26,1
1576896669,2019-12-21 03:51,26.52,971.16,996.95,214,24.82,4.31,-25,1
1576896729,2019-12-21 03:52,26.54,971.17,996.95,214,24.83,4.33,-24,1
1576896789,2019-12-21 03:53,26.53,971.16,996.94,214,24.81,4.31,-26,1
1576896849,2019-12-21 03:54,26.51,971.17,996.96,214,24.82,4.31,-26,1
1576896910,2019-12-21 03:55,26.52,971.20,996.98,214,24.82,4.31,-25,1
1576896970,2019-12-21 03:56,26.60,971.20,996.98,214,24.83,4.36,-24,1
1576897030,2019-12-21 03:57,26.53,971.20,996.99,214,24.83,4.33,-25,1
1576897090,2019-12-21 03:58,26.53,971.15,996.93,214,24.82,4.32,-25,1
1576897151,2019-12-21 03:59,26.54,971.22,997.00,214,24.81,4.32,-25,1
1576897211,2019-12-21 04:00,26.54,971.20,996.98,214,24.81,4.32,-25,1
1576897271,2019-12-21 04:01,26.56,971.24,997.02,214,24.82,4.34,-25,1
1576897332,2019-12-21 04:02,26.53,971.17,996.96,214,24.82,4.32,-26,1
1576897392,2019-12-21 04:03,26.54,971.20,996.98,214,24.82,4.33,-25,1
1576897452,2019-12-21 04:04,26.65,971.18,996.97,214,24.82,4.38,-26,1
1576897512,2019-12-21 04:05,26.54,971.19,996.97,214,24.81,4.32,-27,1
1576897573,2019-12-21 04:06,26.56,971.21,997.00,214,24.81,4.33,-23,1
1576897633,2019-12-21 04:07,26.54,971.21,996.99,214,24.82,4.33,-26,1
1576897693,2019-12-21 04:08,26.55,971.19,996.98,214,24.81,4.32,-26,1
1576897753,2019-12-21 04:09,26.54,971.20,996.99,214,24.81,4.32,-25,1
1576897814,2019-12-21 04:10,26.55,971.15,996.94,214,24.81,4.32,-26,1
1576897874,2019-12-21 04:11,26.45,971.18,996.96,214,24.81,4.27,-26,1
1576897934,2019-12-21 04:12,26.54,971.19,996.97,214,24.81,4.32,-23,1
1576897995,2019-12-21 04:13,26.56,971.16,996.94,214,24.81,4.33,-26,1
1576898055,2019-12-21 04:14,26.56,971.14,996.92,214,24.81,4.33,-25,1
1576898115,2019-12-21 04:15,26.56,971.09,996.88,214,24.80,4.32,-26,1
1576898175,2019-12-21 04:16,26.55,971.12,996.90,214,24.81,4.32,-26,1
1576898236,2019-12-21 04:17,26.55,971.09,996.88,214,24.80,4.31,-26,1
1576898296,2019-12-21 04:18,26.56,971.11,996.89,214,24.81,4.33,-24,1
1576898356,2019-12-21 04:19,26.56,971.08,996.87,214,24.80,4.32,-25,1
1576898416,2019-12-21 04:20,26.57,971.07,996.85,214,24.79,4.32,-26,1
1576898477,2019-12-21 04:21,26.56,971.05,996.83,214,24.79,4.31,-22,1
1576898537,2019-12-21 04:22,26.56,971.01,996.79,214,24.78,4.30,-26,1
1576898597,2019-12-21 04:23,26.55,971.03,996.81,214,24.79,4.30,-26,1
1576898658,2019-12-21 04:24,26.59,970.99,996.77,214,24.79,4.33,-26,1
1576898718,2019-12-21 04:25,26.55,970.96,996.74,214,24.79,4.31,-25,1
1576898778,2019-12-21 04:26,26.57,970.96,996.74,214,24.79,4.32,-26,1
1576898838,2019-12-21 04:27,26.56,970.90,996.68,214,24.79,4.31,-26,1
1576898899,2019-12-21 04:28,26.82,970.93,996.72,214,24.79,4.45,-26,1
1576898959,2019-12-21 04:29,26.56,970.92,996.70,214,24.79,4.31,-22,1
1576899019,2019-12-21 04:30,26.57,970.91,996.69,214,24.79,4.32,-24,1
1576899080,2019-12-21 04:31,26.56,970.92,996.70,214,24.78,4.30,-25,1
1576899140,2019-12-21 04:32,26.58,970.95,996.74,214,24.79,4.32,-25,1
1576899200,2019-12-21 04:33,26.34,970.97,996.75,214,24.78,4.18,-25,1
1576899260,2019-12-21 04:34,26.57,971.02,996.81,214,24.79,4.32,-24,1
1576899321,2019-12-21 04:35,26.58,971.01,996.79,214,24.79,4.32,-26,1
1576899381,2019-12-21 04:36,26.58,971.00,996.79,214,24.79,4.32,-25,1
1576899441,2019-12-21 04:37,26.57,971.03,996.81,214,24.78,4.31,-25,1
1576899501,2019-12-21 04:38,26.59,971.03,996.82,214,24.78,4.32,-26,1
1576899562,2019-12-21 04:39,26.58,971.03,996.82,214,24.78,4.31,-26,1
1576899622,2019-12-21 04:40,26.57,971.05,996.83,214,24.77,4.30,-25,1
1576899682,2019-12-21 04:41,26.58,971.08,996.86,214,24.78,4.31,-24,1
1576899743,2019-12-21 04:42,26.58,971.07,996.85,214,24.78,4.31,-26,1
1576899803,2019-12-21 04:43,26.66,971.13,996.91,214,24.78,4.36,-25,1
1576899863,2019-12-21 04:44,26.58,971.12,996.91,214,24.77,4.31,-26,1
1576899923,2019-12-21 04:45,26.58,971.14,996.93,214,24.78,4.31,-25,1
1576899984,2019-12-21 04:46,26.58,971.15,996.93,214,24.77,4.31,-25,1
1576900044,2019-12-21 04:47,26.59,971.15,996.93,214,24.77,4.31,-25,1
1576900104,2019-12-21 04:48,26.59,971.15,996.94,214,24.77,4.31,-25,1
1576900164,2019-12-21 04:49,26.58,971.15,996.94,214,24.78,4.31,-26,1
1576900225,2019-12-21 04:50,26.59,971.11,996.89,214,24.77,4.31,-25,1
1576900285,2019-12-21 04:51,26.58,971.12,996.91,214,24.77,4.31,-23,1
1576900345,2019-12-21 04:52,26.59,971.08,996.87,214,24.76,4.30,-26,1
1576900406,2019-12-21 04:53,26.60,971.11,996.89,214,24.77,4.32,-26,1
1576900466,2019-12-21 04:54,26.60,971.05,996.84,214,24.76,4.31,-25,1
1576900526,2019-12-21 04:55,26.59,970.94,996.72,214,24.77,4.31,-26,1
1576900586,2019-12-21 04:56,26.60,970.90,996.68,214,24.77,4.32,-24,1
1576900647,2019-12-21 04:57,26.25,970.91,996.69,214,24.76,4.12,-25,1
1576900707,2019-12-21 04:58,26.48,970.94,996.72,214,24.76,4.24,-26,1
1576900767,2019-12-21 04:59,26.60,970.95,996.73,214,24.76,4.31,-25,1
1576900828,2019-12-21 05:00,26.62,971.01,996.79,214,24.76,4.32,-26,1
1576900888,2019-12-21 05:01,26.57,971.03,996.82,214,24.77,4.30,-25,1
1576900948,2019-12-21 05:02,26.61,971.02,996.81,214,24.76,4.31,-23,1
1576901008,2019-12-21 05:03,26.58,971.11,996.89,214,24.76,4.30,-25,1
1576901069,2019-12-21 05:04,26.62,971.06,996.84,214,24.77,4.33,-22,1
1576901129,2019-12-21 05:05,26.64,971.08,996.86,214,24.76,4.33,-24,1
1576901189,2019-12-21 05:06,26.61,971.05,996.84,214,24.76,4.31,-26,1
1576901249,2019-12-21 05:07,26.48,971.06,996.85,214,24.76,4.24,-25,1
1576901310,2019-12-21 05:08,26.73,971.09,996.87,214,24.76,4.38,-25,1
1576901370,2019-12-21 05:09,26.64,971.01,996.80,214,24.75,4.32,-22,1
1576901430,2019-12-21 05:10,26.66,970.99,996.77,214,24.76,4.34,-25,1
1576901491,2019-12-21 05:11,26.65,970.95,996.73,214,24.75,4.32,-25,1
1576901551,2019-12-21 05:12,26.64,970.92,996.70,214,24.75,4.32,-24,1
1576901611,2019-12-21 05:13,26.65,970.91,996.69,214,24.75,4.32,-25,1
1576901671,2019-12-21 05:14,26.65,970.94,996.73,214,24.75,4.32,-26,1
1576901732,2019-12-21 05:15,26.64,971.03,996.82,214,24.75,4.32,-25,1
1576901792,2019-12-21 05:16,26.64,971.13,996.91,214,24.76,4.33,-26,1
1576901852,2019-12-21 05:17,26.66,971.16,996.95,214,24.75,4.33,-26,1
1576901913,2019-12-21 05:18,26.66,971.17,996.95,214,24.75,4.33,-25,1
1576901973,2019-12-21 05:19,26.63,971.14,996.93,214,24.74,4.31,-26,1
1576902033,2019-12-21 05:20,26.66,971.20,996.98,214,24.74,4.32,-25,1
1576902093,2019-12-21 05:21,26.66,971.16,996.94,214,24.74,4.32,-23,1
1576902154,2019-12-21 05:22,26.67,971.20,996.98,214,24.74,4.33,-23,1
1576902214,2019-12-21 05:23,26.66,971.16,996.94,214,24.73,4.31,-26,1
1576902274,2019-12-21 05:24,26.68,971.18,996.96,214,24.73,4.32,-26,1
1576902335,2019-12-21 05:25,26.68,971.12,996.91,214,24.73,4.32,-25,1
1576902395,2019-12-21 05:26,26.56,971.14,996.93,214,24.73,4.26,-25,1
1576902455,2019-12-21 05:27,26.67,971.14,996.92,214,24.73,4.32,-26,1
1576902515,2019-12-21 05:28,26.59,971.16,996.94,214,24.73,4.28,-26,1
1576902575,2019-12-21 05:29,26.69,971.22,997.00,214,24.73,4.33,-25,1
1576902636,2019-12-21 05:30,26.68,971.21,997.00,214,24.73,4.32,-24,1
1576902696,2019-12-21 05:31,26.69,971.21,996.99,214,24.73,4.33,-26,1
1576902756,2019-12-21 05:32,26.69,971.17,996.95,214,24.73,4.33,-25,1
1576902816,2019-12-21 05:33,26.68,971.21,997.00,214,24.69,4.29,-26,1
1576902876,2019-12-21 05:34,26.68,971.23,997.02,214,24.72,4.31,-27,1
1576902936,2019-12-21 05:35,26.69,971.24,997.02,214,24.73,4.33,-26,1
1576902996,2019-12-21 05:36,26.67,971.25,997.03,214,24.73,4.32,-26,1
1576903056,2019-12-21 05:37,26.68,971.23,997.01,214,24.74,4.33,-26,1
1576903116,2019-12-21 05:38,26.68,971.23,997.01,214,24.71,4.31,-26,1
1576903176,2019-12-21 05:39,26.68,971.22,997.00,214,24.73,4.32,-25,1
1576903236,2019-12-21 05:40,26.67,971.28,997.06,214,24.74,4.33,-26,1
1576903296,2019-12-21 05:41,26.67,971.29,997.07,214,24.74,4.33,-25,1
1576903357,2019-12-21 05:42,26.68,971.28,997.07,214,24.75,4.34,-26,1
1576903417,2019-12-21 05:43,26.67,971.25,997.03,214,24.76,4.34,-26,1
1576903477,2019-12-21 05:44,26.67,971.30,997.08,214,24.75,4.33,-26,1
1576903537,2019-12-21 05:45,26.67,971.31,997.09,214,24.76,4.34,-26,1
1576903597,2019-12-21 05:46,26.66,971.32,997.10,214,24.77,4.35,-25,1
1576903657,2019-12-21 05:47,26.65,971.30,997.08,214,24.77,4.34,-24,1